time_stamp(utc),avg(mph),gust(mph),direction(deg),12m_air_temp(f),sonic_u(cm/s),sonic_v(cm/s),sonic_w(cm/s),pressure,2m_air_temp(f),pyranometer(W/m^2)
"2018-06-01 00:02:07+00",8.7,9.7,,64.8,201,-317,-5,1012.42,65.1,0
"2018-06-01 00:07:07+00",8.6,9.6,,64.6,186,-320,-20,1012.41,64.8,0
"2018-06-01 00:12:07+00",7.1,8.1,,64.5,146,-271,-1,1012.59,64.8,0
"2018-06-01 00:17:07+00",6.2,7.2,,64.6,138,-301,43,1012.62,64.8,0
"2018-06-01 00:22:07+00",6.9,8.9,,64.6,103,-277,-8,1012.61,64.6,0
"2018-06-01 00:27:07+00",6.9,8.9,,64.6,128,-264,16,1012.57,64.7,0
"2018-06-01 00:32:07+00",7.2,8.2,,64.6,157,-266,-9,1012.5,64.7,0
"2018-06-01 00:37:07+00",7.8,9.8,,64.8,161,-297,-11,1012.51,64.9,0
"2018-06-01 00:42:07+00",7.9,9.9,,64.7,198,-270,-3,1012.4,64.8,0
"2018-06-01 00:47:07+00",8.0,10.0,,64.6,210,-277,-3,1012.36,64.8,0
"2018-06-01 00:52:07+00",8.9,9.9,,64.6,164,-339,-9,1012.46,64.7,0
"2018-06-01 00:57:07+00",8.0,9.0,,64.8,124,-321,-1,1012.54,64.8,0
"2018-06-01 01:02:07+00",8.3,10.3,,64.9,172,-312,-7,1012.46,64.9,0
"2018-06-01 01:07:07+00",9.0,10.0,,64.9,153,-350,-1,1012.42,65,0
"2018-06-01 01:12:07+00",8.7,10.7,,64.8,112,-355,-16,1012.45,64.8,0
"2018-06-01 01:17:07+00",7.7,8.7,,64.7,139,-300,-15,1012.47,64.8,0
"2018-06-01 01:22:07+00",7.1,8.1,,64.7,112,-281,-6,1012.55,64.8,0
"2018-06-01 01:27:07+00",7.2,9.2,,64.7,98,-297,-11,1012.57,64.7,0
"2018-06-01 01:32:07+00",4.0,7.0,,64.6,-57,-74,-70,1012.58,64.7,0
"2018-06-01 01:37:07+00",6.3,8.3,,64.5,47,-263,-14,1012.51,64.6,0
"2018-06-01 01:42:07+00",6.3,8.3,,64.5,44,-270,-12,1012.48,64.6,0
"2018-06-01 01:47:07+00",5.6,6.6,,64.5,-106,-1,-150,1012.58,64.5,0
"2018-06-01 01:52:07+00",6.1,8.1,,64.4,-5,-229,-24,1012.56,64.5,0
"2018-06-01 01:57:07+00",5.2,7.2,,64.5,27,-204,0,1012.61,64.4,0
"2018-06-01 02:02:07+00",7.3,9.3,,64.6,80,-302,-26,1012.51,64.6,0
"2018-06-01 02:07:07+00",6.9,8.9,,64.7,32,-280,-11,1012.57,64.6,0
"2018-06-01 02:12:07+00",6.3,8.3,,64.7,72,-260,-14,1012.49,64.6,0
"2018-06-01 02:17:07+00",7.5,8.5,,64.7,121,-298,-13,1012.48,64.6,0
"2018-06-01 02:22:07+00",7.8,8.8,,64.8,137,-303,-5,1012.43,64.8,0
"2018-06-01 02:27:07+00",7.7,9.7,,64.8,140,-297,0,1012.43,64.8,0
"2018-06-01 02:32:07+00",8.0,9.0,,64.8,137,-318,-3,1012.33,64.8,0
"2018-06-01 02:37:07+00",8.9,9.9,,64.8,144,-354,-10,1012.24,64.8,0
"2018-06-01 02:42:07+00",9.4,11.4,,64.9,91,-369,-1,1012.28,64.9,0
"2018-06-01 02:47:07+00",10.0,12.0,,65,131,-401,-3,1012.12,64.9,0
"2018-06-01 02:52:07+00",9.8,10.8,,65.1,157,-396,-13,1011.95,65,0
"2018-06-01 02:57:07+00",9.7,10.7,,65.2,159,-392,-10,1011.94,65.1,0
"2018-06-01 03:02:07+00",10.5,13.5,,65,165,-427,-16,1011.91,65,0
"2018-06-01 03:07:07+00",9.5,10.5,,64.9,158,-379,-4,1011.8,64.9,0
"2018-06-01 03:12:07+00",11.1,12.1,,64.8,178,-443,-9,1011.68,64.8,0
"2018-06-01 03:17:07+00",10.4,12.4,,64.8,169,-413,-3,1011.65,64.8,0
"2018-06-01 03:22:07+00",10.8,12.8,,64.6,159,-439,-3,1011.68,64.6,0
"2018-06-01 03:27:07+00",10.9,12.9,,64.6,150,-446,-10,1011.61,64.5,0
"2018-06-01 03:32:07+00",11.4,13.4,,64.6,180,-457,-7,1011.51,64.6,0
"2018-06-01 03:37:07+00",10.7,12.7,,64.6,126,-442,-12,1011.52,64.6,0
"2018-06-01 03:42:07+00",10.1,12.1,,64.6,60,-429,-14,1011.51,64.6,0
"2018-06-01 03:47:07+00",9.9,11.9,,64.4,67,-409,-16,1011.48,64.4,0
"2018-06-01 03:52:07+00",9.2,11.2,,64.2,63,-382,-8,1011.46,64.2,0
"2018-06-01 03:57:07+00",9.5,12.5,,64.3,64,-404,-23,1011.46,64.2,0
"2018-06-01 04:02:07+00",10.4,11.4,,64.4,106,-439,-21,1011.32,64.3,0
"2018-06-01 04:07:07+00",9.6,11.6,,64.7,82,-389,-12,1011.22,64.5,0
"2018-06-01 04:12:07+00",9.3,12.3,,65.1,76,-375,-7,1011.2,64.9,0
"2018-06-01 04:17:07+00",10.7,12.7,,65.1,84,-448,-16,1011.15,64.9,0
"2018-06-01 04:22:07+00",8.9,10.9,,64.9,68,-370,-10,1011.17,64.9,0
"2018-06-01 04:27:07+00",9.0,13.0,,64.7,78,-384,-20,1011.07,64.7,0
"2018-06-01 04:32:07+00",9.6,11.6,,64.6,68,-405,-12,1011.13,64.6,0
"2018-06-01 04:37:07+00",10.3,11.3,,64.5,92,-421,-28,1010.92,64.5,0
"2018-06-01 04:42:07+00",8.1,10.1,,64.5,55,-322,-2,1010.9,64.4,0
"2018-06-01 04:47:07+00",9.7,10.7,,64.4,86,-394,-21,1010.88,64.4,0
"2018-06-01 04:52:07+00",8.3,10.3,,64.4,64,-350,-16,1010.92,64.3,0
"2018-06-01 04:57:07+00",7.2,9.2,,64.2,35,-302,2,1011,64.2,0
"2018-06-01 05:02:07+00",7.8,9.8,,64.2,35,-339,-21,1011.01,64.1,0
"2018-06-01 05:07:07+00",7.1,9.1,,64.2,31,-300,-14,1011.05,64.1,0
"2018-06-01 05:12:07+00",6.3,8.3,,64.3,24,-271,-8,1010.95,64.2,0
"2018-06-01 05:17:07+00",8.8,9.8,,64.4,43,-364,-15,1010.86,64.3,0
"2018-06-01 05:22:07+00",8.1,9.1,,64.3,89,-336,-14,1010.81,64.3,0
"2018-06-01 05:27:07+00",8.1,10.1,,64.2,90,-322,-19,1010.66,64.2,0
"2018-06-01 05:32:07+00",7.7,8.7,,64.1,60,-324,-6,1010.59,64.1,0
"2018-06-01 05:37:07+00",6.5,8.5,,64.1,37,-272,-3,1010.49,64,0
"2018-06-01 05:42:07+00",6.6,9.6,,64,34,-271,1,1010.47,64,0
"2018-06-01 05:47:07+00",6.4,8.4,,64,72,-252,0,1010.3,63.9,0
"2018-06-01 05:52:07+00",6.1,7.1,,64,64,-245,-12,1010.21,64,0
"2018-06-01 05:57:07+00",5.0,7.0,,64,83,-191,10,1010.15,63.9,0
"2018-06-01 06:02:07+00",5.5,7.5,,64.2,48,-216,-12,1010.09,64.1,0
"2018-06-01 06:07:07+00",5.7,6.7,,64.2,119,-217,-3,1009.98,64.1,0
"2018-06-01 06:12:07+00",6.4,7.4,,64.1,125,-244,-1,1009.95,64.1,0
"2018-06-01 06:17:07+00",5.9,7.9,,64.1,129,-202,-6,1009.86,64.1,0
"2018-06-01 06:22:07+00",5.8,6.8,,64.1,110,-221,-6,1009.82,64,0
"2018-06-01 06:27:07+00",7.6,8.6,,64.1,123,-298,-11,1009.79,64,0
"2018-06-01 06:32:07+00",7.1,8.1,,64.1,139,-268,-6,1009.69,64.1,0
"2018-06-01 06:37:07+00",6.1,7.1,,64,100,-241,-9,1009.66,64,0
"2018-06-01 06:42:07+00",6.2,7.2,,64,68,-255,-15,1009.65,64,0
"2018-06-01 06:47:07+00",5.0,7.0,,63.9,40,-193,3,1009.62,63.9,0
"2018-06-01 06:52:07+00",4.7,5.7,,63.9,63,-169,11,1009.57,63.8,0
"2018-06-01 06:57:07+00",4.9,5.9,,63.8,74,-191,-5,1009.54,63.8,0
"2018-06-01 07:02:07+00",4.3,4.3,,63.9,86,-150,-7,1009.43,63.9,0
"2018-06-01 07:07:07+00",4.4,5.4,,63.9,77,-165,0,1009.41,63.9,0
"2018-06-01 07:12:07+00",6.5,7.5,,64,130,-241,-13,1009.39,64,0
"2018-06-01 07:17:07+00",5.6,6.6,,64.2,157,-182,-5,1009.35,64.1,0
"2018-06-01 07:22:07+00",6.0,7.0,,64.1,164,-198,-9,1009.32,64.2,0
"2018-06-01 07:27:07+00",5.3,6.3,,64.1,157,-163,8,1009.33,64.1,0
"2018-06-01 07:32:07+00",5.7,5.7,,64.1,151,-185,-9,1009.33,64.2,0
"2018-06-01 07:37:07+00",6.1,7.1,,64.1,175,-189,5,1009.2,64.1,0
"2018-06-01 07:42:07+00",7.0,8.0,,64,211,-212,2,1009.13,64,0
"2018-06-01 07:47:07+00",7.3,8.3,,63.9,225,-209,-2,1009.08,64,0
"2018-06-01 07:52:07+00",7.7,8.7,,63.9,236,-226,-6,1009.07,63.9,0
"2018-06-01 07:57:07+00",8.0,9.0,,63.8,221,-264,-11,1008.96,63.9,0
"2018-06-01 08:02:07+00",8.3,9.3,,63.8,160,-312,-13,1009.11,63.9,0
"2018-06-01 08:07:07+00",7.4,8.4,,63.8,99,-294,4,1009.22,63.8,0
"2018-06-01 08:12:07+00",7.6,8.6,,63.7,78,-317,-6,1009.24,63.8,0
"2018-06-01 08:17:07+00",5.1,7.1,,63.9,24,-219,8,1009.2,63.8,0
"2018-06-01 08:22:07+00",6.9,7.9,,64.1,32,-296,-8,1009.21,64,0
"2018-06-01 08:27:07+00",6.5,7.5,,64.1,15,-270,-4,1009.16,64.1,0
"2018-06-01 08:32:07+00",5.9,7.9,,64.2,13,-244,-3,1009.14,64.1,0
"2018-06-01 08:37:07+00",5.1,6.1,,64.3,24,-219,-1,1009.08,64.3,0
"2018-06-01 08:42:07+00",6.6,7.6,,64.4,68,-269,-13,1008.93,64.4,0
"2018-06-01 08:47:07+00",6.3,7.3,,64.5,89,-247,-8,1008.77,64.5,0
"2018-06-01 08:52:07+00",6.9,7.9,,64.5,129,-264,-11,1008.68,64.4,0
"2018-06-01 08:57:07+00",6.1,7.1,,64.4,66,-240,-6,1008.71,64.4,0
"2018-06-01 09:02:07+00",5.4,6.4,,64.6,-81,-213,-4,1008.92,64.5,0
"2018-06-01 09:07:07+00",6.8,8.8,,64.9,-95,-270,1,1009.05,64.8,0
"2018-06-01 09:12:07+00",5.6,6.6,,65,-11,-226,-8,1008.92,64.9,0
"2018-06-01 09:17:07+00",6.0,7.0,,65.2,-18,-238,-19,1008.87,65.1,0
"2018-06-01 09:22:07+00",6.5,7.5,,65.2,2,-265,-2,1008.92,65.1,0
"2018-06-01 09:27:07+00",7.7,9.7,,65.2,-28,-320,0,1008.96,65.1,0
"2018-06-01 09:32:07+00",7.5,10.5,,65.2,-87,-309,-4,1008.86,65.1,0
"2018-06-01 09:37:07+00",6.1,9.1,,65.2,-74,-237,10,1008.88,65.1,0
"2018-06-01 09:42:07+00",6.4,8.4,,65.3,-86,-257,7,1008.98,65.2,0
"2018-06-01 09:47:07+00",8.7,10.7,,65.3,-146,-334,6,1009.04,65.2,0
"2018-06-01 09:52:07+00",11.1,12.1,,65.4,-217,-428,-8,1009.15,65.3,0
"2018-06-01 09:57:07+00",11.0,13.0,,65.4,-218,-408,5,1009.34,65.3,0
"2018-06-01 10:02:07+00",11.4,13.4,,65.3,-227,-439,-8,1009.38,65.3,0
"2018-06-01 10:07:07+00",7.6,11.6,,65.3,-111,-304,8,1009.37,65.2,0
"2018-06-01 10:12:07+00",9.5,10.5,,65.2,-162,-366,3,1009.44,65.2,0
"2018-06-01 10:17:07+00",7.4,8.4,,65.3,-132,-280,-4,1009.44,65.2,0
"2018-06-01 10:22:07+00",8.0,8.0,,65.5,-198,-294,2,1009.49,65.4,0
"2018-06-01 10:27:07+00",7.8,8.8,,65.7,-233,-268,-3,1009.59,65.5,0
"2018-06-01 10:32:07+00",6.9,8.9,,65.7,-154,-261,-13,1009.64,65.7,0
"2018-06-01 10:37:07+00",6.1,7.1,,65.8,-179,-208,2,1009.63,65.8,0
"2018-06-01 10:42:07+00",6.2,7.2,,66,-210,-175,13,1009.7,65.9,0
"2018-06-01 10:47:07+00",6.0,7.0,,66.2,-218,-147,7,1009.64,66.1,0
"2018-06-01 10:52:07+00",6.0,7.0,,66.6,-222,-140,8,1009.64,66.3,1
"2018-06-01 10:57:07+00",4.3,5.3,,66.7,-162,-87,6,1009.53,66.6,4.5
"2018-06-01 11:02:07+00",5.1,6.1,,66.8,-162,-146,0,1009.49,66.8,11.8
"2018-06-01 11:07:07+00",4.6,5.6,,67,-136,-142,6,1009.39,67,30.6
"2018-06-01 11:12:07+00",4.9,5.9,,67.1,-149,-161,25,1009.44,67.2,39.1
"2018-06-01 11:17:07+00",6.6,7.6,,67.1,-212,-199,26,1009.46,67.4,94.2
"2018-06-01 11:22:07+00",5.6,6.6,,67.2,-176,-162,17,1009.37,67.5,45.4
"2018-06-01 11:27:07+00",5.1,6.1,,67.3,-168,-147,7,1009.52,67.5,62.8
"2018-06-01 12:12:07+00",7.2,8.2,,68.4,-437,145,-148,1009.57,68.7,48.7
"2018-06-01 12:17:07+00",7.0,8.0,,68.4,-286,-139,39,1009.59,68.7,55.8
"2018-06-01 12:22:07+00",8.0,10.0,,68.5,-319,-169,35,1009.69,68.7,76.8
"2018-06-01 12:27:07+00",7.8,9.8,,68.7,-277,-199,14,1009.65,68.8,89.6
"2018-06-01 12:32:07+00",8.1,9.1,,68.8,-265,-236,13,1009.63,69.1,134.5
"2018-06-01 12:37:07+00",8.2,9.2,,69.1,-281,-210,-2,1009.63,69.4,135.5
"2018-06-01 12:42:07+00",7.7,9.7,,69.2,-265,-201,37,1009.63,69.5,117.7
"2018-06-01 12:47:07+00",8.6,9.6,,69.2,-264,-264,-8,1009.64,69.5,91.6
"2018-06-01 12:52:07+00",7.5,8.5,,69.2,-230,-246,28,1009.69,69.6,87.6
"2018-06-01 12:57:07+00",5.5,6.5,,69.3,-142,-194,14,1009.54,69.9,136.1
"2018-06-01 13:02:07+00",6.8,7.8,,69.5,-196,-220,-4,1009.64,70,120.9
"2018-06-01 13:07:07+00",6.7,7.7,,69.6,-201,-226,3,1009.62,70.2,98.6
"2018-06-01 13:12:07+00",6.8,8.8,,69.8,-212,-209,5,1009.66,70.2,124.5
"2018-06-01 13:17:07+00",6.2,7.2,,69.8,-191,-185,-5,1009.56,70.3,114.6
"2018-06-01 13:22:07+00",6.4,7.4,,70.1,-218,-173,23,1009.63,70.7,120.7
"2018-06-01 13:27:07+00",7.9,8.9,,70.2,-255,-227,1,1009.7,70.7,124.6
"2018-06-01 13:32:07+00",6.4,7.4,,70.1,-213,-165,3,1009.68,70.6,74.6
"2018-06-01 13:37:07+00",5.0,7.0,,70.3,-204,-100,17,1009.71,70.8,56.5
"2018-06-01 13:42:07+00",5.8,6.8,,70.4,-236,-121,-9,1009.71,70.8,58.8
"2018-06-01 13:47:07+00",6.2,7.2,,70.6,-257,-81,9,1009.81,71,76
"2018-06-01 13:52:07+00",4.2,5.2,,70.8,-177,-57,14,1009.71,71.4,113.6
"2018-06-01 13:57:07+00",4.7,5.7,,70.9,-201,2,9,1009.68,71.6,119.5
"2018-06-01 14:02:07+00",4.7,5.7,,71.2,-195,48,26,1009.72,72,109.1
"2018-06-01 14:07:07+00",6.5,7.5,,71.3,-282,71,10,1009.77,72.2,147.5
"2018-06-01 14:12:07+00",5.5,6.5,,71.6,-242,19,26,1009.92,72.3,132.4
"2018-06-01 14:17:07+00",6.2,7.2,,71.7,-268,37,7,1009.92,72.4,103.5
"2018-06-01 14:22:07+00",4.4,5.4,,71.8,-192,17,10,1009.71,72.6,151.2
"2018-06-01 14:27:07+00",4.7,5.7,,72.1,-195,5,12,1009.77,72.8,125.2
"2018-06-01 14:32:07+00",3.2,4.2,,72.2,-130,-25,3,1009.71,73.2,116.2
"2018-06-01 14:37:07+00",4.5,5.5,,71.8,117,-125,42,1009.61,72.9,115.6
"2018-06-01 14:42:07+00",5.0,6.0,,72,-181,-125,28,1009.65,72.9,103.3
"2018-06-01 14:47:07+00",5.3,8.3,,71.8,7,-214,4,1009.5,72.5,130.1
"2018-06-01 14:52:07+00",6.6,8.6,,70.9,12,-281,-13,1009.46,71.6,160.1
"2018-06-01 14:57:07+00",4.4,5.4,,71.2,-29,-168,10,1009.53,71.8,158
"2018-06-01 15:02:07+00",5.1,6.1,,71.6,-41,-201,2,1009.46,72.3,190.2
"2018-06-01 15:07:07+00",5.6,6.6,,71.7,-41,-232,-5,1009.56,72.5,159.5
"2018-06-01 15:12:07+00",7.4,8.4,,71.8,-58,-307,-25,1009.54,72.8,192.5
"2018-06-01 15:17:07+00",6.5,7.5,,72.3,-89,-252,-8,1009.33,73.2,237.3
"2018-06-01 15:22:07+00",5.8,7.8,,72.7,-56,-236,-13,1009.37,73.6,218.6
"2018-06-01 15:27:07+00",6.8,7.8,,72.6,-123,-263,-5,1009.31,73.7,244
"2018-06-01 15:32:07+00",4.8,5.8,,72.8,-120,-160,-17,1009.46,74.3,305.2
"2018-06-01 15:37:07+00",5.9,7.9,,73.6,-90,-238,2,1009.37,75,293.1
"2018-06-01 15:42:07+00",6.4,8.4,,73.8,-99,-249,-7,1009.39,75.2,348.1
"2018-06-01 15:47:07+00",6.2,8.2,,74.1,-114,-240,14,1009.44,75.8,366.2
"2018-06-01 15:52:07+00",7.8,8.8,,74.1,-71,-325,-18,1009.41,76,327.6
"2018-06-01 15:57:07+00",4.9,6.9,,74.4,-41,-192,12,1009.33,76.2,328.7
"2018-06-01 16:02:07+00",7.0,8.0,,74.4,-145,-270,9,1009.43,76.2,374.1
"2018-06-01 16:07:07+00",5.8,6.8,,74.3,-60,-233,7,1009.35,75.9,318.8
"2018-06-01 16:12:07+00",6.2,7.2,,74.4,-106,-241,-3,1009.38,76.2,435.4
"2018-06-01 16:17:07+00",8.0,10.0,,74.6,-118,-318,-16,1009.37,76.8,349.3
"2018-06-01 16:22:07+00",7.0,8.0,,74.4,-108,-277,-4,1009.41,76.7,343.5
"2018-06-01 16:27:07+00",5.6,7.6,,74.7,-38,-222,14,1009.34,76.8,462.3
"2018-06-01 16:32:07+00",5.9,7.9,,75.1,-88,-226,-24,1009.41,77,306
"2018-06-01 16:37:07+00",5.5,6.5,,75.4,-22,-225,-12,1009.42,77,342.5
"2018-06-01 16:42:07+00",5.7,7.7,,75.8,-26,-233,-11,1009.42,77.2,551.5
"2018-06-01 16:47:07+00",4.7,6.7,,76.2,-122,-161,13,1009.38,78,514.8
"2018-06-01 16:52:07+00",6.7,7.7,,76.2,-176,-241,-3,1009.39,78.8,568.5
"2018-06-01 16:57:07+00",7.0,8.0,,76.4,-282,-101,44,1009.36,79.8,434.3
"2018-06-01 17:02:07+00",7.0,8.0,,76.5,-241,-177,17,1009.26,80.4,564.7
"2018-06-01 17:07:07+00",5.4,6.4,,76.6,-227,-66,-9,1009.35,81,431.6
"2018-06-01 17:12:07+00",6.8,8.8,,76.6,-277,-148,10,1009.26,81.1,233.4
"2018-06-01 17:17:07+00",7.9,9.9,,76.4,-268,-220,14,1009.24,80.9,343.7
"2018-06-01 17:22:07+00",7.3,9.3,,76.1,-279,-172,-9,1009.27,80.3,312.4
"2018-06-01 17:27:07+00",6.5,7.5,,76.5,-269,-127,12,1009.19,80.9,530.5
"2018-06-01 17:32:07+00",7.7,8.7,,76.7,-322,-136,17,1009.11,81.4,545.4
"2018-06-01 17:37:07+00",8.4,9.4,,76.7,-270,-272,36,1009.04,81.2,396.8
"2018-06-01 17:42:07+00",7.2,8.2,,76.5,-192,-252,-9,1008.99,80.5,497.5
"2018-06-01 17:47:07+00",8.7,9.7,,76.8,-286,-257,11,1009,80.7,511.9
"2018-06-01 17:52:07+00",6.1,7.1,,77.2,-138,-235,9,1008.92,80.8,477.8
"2018-06-01 17:57:07+00",6.9,7.9,,77.6,-202,-243,25,1008.93,81.4,538.2
"2018-06-01 18:02:07+00",5.8,7.8,,77.6,-1,-237,23,1008.91,80.3,231.1
"2018-06-01 18:07:07+00",8.0,9.0,,77.4,-132,-316,6,1008.89,79.5,468.6
"2018-06-01 18:12:07+00",7.5,8.5,,77.8,-47,-316,-9,1008.81,79.8,510.7
"2018-06-01 18:17:07+00",7.3,9.3,,78.4,-116,-293,9,1008.85,80.3,525.5
"2018-06-01 18:22:07+00",6.5,7.5,,78,-194,-231,4,1008.81,80.8,168.9
"2018-06-01 18:27:07+00",6.4,7.4,,77.8,-90,-249,0,1008.77,80.6,184.1
"2018-06-01 18:32:07+00",8.0,10.0,,77.1,75,-332,-20,1008.63,79.3,492.4
"2018-06-01 18:37:07+00",8.0,10.0,,77.1,50,-340,-21,1008.52,79,473.9
"2018-06-01 18:42:07+00",9.2,11.2,,77,64,-387,4,1008.51,79,473.8
"2018-06-01 18:47:07+00",10.7,11.7,,77,70,-447,-17,1008.26,78.8,476.8
"2018-06-01 18:52:07+00",10.9,12.9,,76.5,48,-456,-32,1008.35,78.3,468
"2018-06-01 18:57:07+00",10.7,11.7,,76.6,49,-456,-25,1008.25,78.4,469.8
"2018-06-01 19:02:07+00",10.9,12.9,,77,51,-462,-19,1008.25,78.6,464.6
"2018-06-01 19:07:07+00",11.4,12.4,,76.9,26,-492,-29,1008.25,78.4,428.7
"2018-06-01 19:12:07+00",11.9,14.9,,76.3,30,-516,-41,1008.28,77.7,253.7
"2018-06-01 19:17:07+00",9.7,12.7,,75.8,-11,-421,-4,1008.21,77,167.8
"2018-06-01 19:22:07+00",9.5,13.5,,76.4,-8,-391,1,1008.19,77.4,459.8
"2018-06-01 19:27:07+00",9.3,11.3,,77,-12,-392,-12,1008.15,78.1,379.6
"2018-06-01 19:32:07+00",7.0,8.0,,77.4,-9,-292,16,1008.11,78.7,419.1
"2018-06-01 19:37:07+00",10.5,12.5,,77,22,-441,-26,1007.98,78.5,410.6
"2018-06-01 19:42:07+00",10.3,12.3,,76.4,75,-431,-19,1007.95,78.3,407.3
"2018-06-01 19:47:07+00",10.8,12.8,,76.5,73,-459,-19,1007.83,78.5,395.5
"2018-06-01 19:52:07+00",11.1,12.1,,76.4,45,-473,-27,1007.69,78.2,385.3
"2018-06-01 19:57:07+00",9.8,11.8,,76.1,70,-413,-9,1007.62,77.9,383.6
"2018-06-01 20:02:07+00",9.6,11.6,,75.7,67,-398,0,1007.64,77.8,381
"2018-06-01 20:07:07+00",9.5,12.5,,75.8,76,-390,15,1007.59,77.7,366.3
"2018-06-01 20:12:07+00",9.9,11.9,,75.8,26,-414,-17,1007.57,77.8,350.1
"2018-06-01 20:17:07+00",9.9,11.9,,75.7,84,-400,16,1007.56,77.7,341.4
"2018-06-01 20:22:07+00",10.0,12.0,,75.4,89,-408,-8,1007.57,77.5,339.8
"2018-06-01 20:27:07+00",10.6,12.6,,75.5,12,-459,-22,1007.51,77.2,319.7
"2018-06-01 20:32:07+00",10.6,13.6,,75.2,84,-433,6,1007.56,76.8,225.8
"2018-06-01 20:37:07+00",11.9,15.9,,75.6,4,-500,-23,1007.47,77.1,47.3
"2018-06-01 20:42:07+00",12.1,15.1,,74.6,8,-502,-35,1007.57,76,52.2
"2018-06-01 20:47:07+00",9.2,13.2,,75,-37,-392,12,1007.62,76.2,51.7
"2018-06-01 20:52:07+00",11.9,13.9,,74.2,29,-505,-23,1007.61,75.6,56.9
"2018-06-01 20:57:07+00",10.1,14.1,,74.6,-8,-407,10,1007.68,75.8,155.9
"2018-06-01 21:02:07+00",10.2,14.2,,74.5,12,-420,-1,1007.57,75.6,98.9
"2018-06-01 21:07:07+00",9.5,13.5,,74.6,-24,-394,33,1007.59,75.5,273.6
"2018-06-01 21:12:07+00",12.2,15.2,,74.4,-12,-501,-14,1007.52,75.5,136.2
"2018-06-01 21:17:07+00",9.9,11.9,,73.8,-5,-422,-14,1007.47,75.1,49
"2018-06-01 21:22:07+00",13.2,15.2,,73.2,26,-564,-24,1007.46,74.4,218.6
"2018-06-01 21:27:07+00",11.3,14.3,,73,55,-481,-16,1007.37,74.1,195.1
"2018-06-01 21:32:07+00",11.5,14.5,,73.1,59,-509,-32,1007.42,74.2,157.9
"2018-06-01 21:37:07+00",11.0,14.0,,72.7,44,-466,-10,1007.35,73.9,158.9
"2018-06-01 21:42:07+00",11.1,13.1,,73.2,-20,-449,-2,1007.36,74.1,139.3
"2018-06-01 21:47:07+00",9.7,13.7,,73.4,-59,-410,25,1007.31,74.3,155.9
"2018-06-01 21:52:07+00",8.3,11.3,,73.3,-68,-352,28,1007.36,74.2,154.5
"2018-06-01 21:57:07+00",12.5,14.5,,73.1,-112,-529,-18,1007.22,74,150.3
"2018-06-01 22:02:07+00",8.5,13.5,,72.9,-25,-347,23,1007.19,73.8,133.6
"2018-06-01 22:07:07+00",12.3,15.3,,72.5,-64,-511,-28,1007.14,73.5,130.9
"2018-06-01 22:12:07+00",10.8,13.8,,72.5,-103,-445,-16,1007.15,73.4,123
"2018-06-01 22:17:07+00",13.0,17.0,,72.7,-163,-531,-12,1007.16,73.6,109.8
"2018-06-01 22:22:07+00",11.7,13.7,,73.1,-121,-489,-22,1007.23,74,112.6
"2018-06-01 22:27:07+00",8.0,12.0,,73.8,-74,-336,15,1007.22,74.4,100.2
"2018-06-01 22:32:07+00",11.0,15.0,,74.5,-161,-452,4,1007.12,75,74.6
"2018-06-01 22:37:07+00",13.1,17.1,,75,-164,-538,12,1007.15,75.6,69.1
"2018-06-01 22:42:07+00",15.4,18.4,,75.2,-223,-632,-5,1007.19,75.8,83.9
"2018-06-01 22:47:07+00",11.7,14.7,,75.1,-197,-469,-5,1007.05,75.8,80.9
"2018-06-01 22:52:07+00",13.8,15.8,,75.3,-272,-536,-4,1007.02,76,60.8
"2018-06-01 22:57:07+00",14.2,17.2,,75.2,-312,-539,-2,1007.05,75.9,39.3
"2018-06-01 23:02:07+00",13.3,16.3,,75,-308,-500,-4,1007,75.6,6.7
"2018-06-01 23:07:07+00",11.4,13.4,,74.8,-201,-447,-10,1006.94,75.2,1.6
"2018-06-01 23:12:07+00",12.1,14.1,,74.5,-236,-467,-7,1006.99,74.9,0
"2018-06-01 23:17:07+00",12.1,15.1,,74.3,-184,-493,12,1006.87,74.5,0
"2018-06-01 23:22:07+00",12.4,14.4,,74.1,-219,-490,3,1006.77,74.3,11.3
"2018-06-01 23:27:07+00",11.9,12.9,,74,-235,-460,-7,1006.72,74.3,16.5
"2018-06-01 23:32:07+00",10.0,12.0,,73.8,-226,-381,15,1006.78,74.3,15.7
"2018-06-01 23:37:07+00",11.6,12.6,,73.6,-326,-421,5,1006.75,74.2,10.9
"2018-06-01 23:42:07+00",13.5,15.5,,73.4,-360,-498,6,1006.82,74,3.8
"2018-06-01 23:47:07+00",11.2,12.2,,73.3,-285,-419,6,1006.75,73.8,0.8
"2018-06-01 23:52:07+00",11.1,12.1,,73.1,-288,-411,-3,1006.86,73.6,0
"2018-06-01 23:57:07+00",9.7,11.7,,73.1,-256,-357,7,1006.92,73.4,0
